Samara, Russia

9:09 AM on September 24, 2017 (GMT +0000)
Kurumoch

Weather History for UWWW - March, 2014

Change the Weather History Date:

Wednesday, March 26, 2014

  Actual Average Record
Temperature  
Mean Temperature 44 °F -  
Max Temperature 55 °F - - ()
Min Temperature 32 °F - - ()
Degree Days  
Heating Degree Days 22    
Moisture  
Dew Point 30 °F    
Average Humidity 62    
Maximum Humidity 87    
Minimum Humidity 38    
Precipitation  
Precipitation 0.00 in - - ()
Sea Level Pressure  
Sea Level Pressure 30.14 in    
Wind  
Wind Speed 9 mph ()    
Max Wind Speed 18 mph    
Max Gust Speed 27 mph    
Visibility 4.8 miles    
Events Rain , Snow    
T = Trace of Precipitation, MM = Missing Value Source: Averaged Metar Reports

Daily Weather History Graph

Daily Weather History Graph

Search for Another Location

Airport or City:

Trip Planner

Search our weather history database for the weather conditions in past years. The results will help you decide how hot, cold, wet, or windy it might be!

Date:

Astronomy

Mar. 26, 2014 Rise Set
Actual Time 6:26 AM +04 7:01 PM +04
Civil Twilight 5:52 AM +04 7:36 PM +04
Nautical Twilight 5:10 AM +04 8:18 PM +04
Astronomical Twilight 4:26 AM +04 9:03 PM +04
Moon 3:56 AM +04 (3/26) 1:37 PM +04 (3/26)
Length of Visible Light 13h 44m
Length of Day
12h 34m
Waning Crescent, 25% of the Moon is Illuminated
Mar 26
Waning Crescent
Mar 30
New
Apr 7
First Quarter
Apr 15
Full
Apr 22
Last Quarter

Hourly Weather History & Observations

Time (+04) Temp. Windchill Dew Point Humidity Pressure Visibility Wind Dir Wind Speed Gust Speed Precip Events Conditions
12:00 AM 39.2 °F 33.1 °F 28.4 °F 65% 30.21 in - South 8.9 mph - N/A   Clear
12:30 AM 39.2 °F 33.1 °F 28.4 °F 65% 30.18 in - South 8.9 mph - N/A   Clear
1:00 AM 37.4 °F 33.9 °F 28.4 °F 70% 30.18 in - SSW 4.5 mph - N/A   Clear
1:30 AM 37.4 °F 33.9 °F 28.4 °F 70% 30.18 in - WSW 4.5 mph - N/A   Clear
2:00 AM 35.6 °F 31.8 °F 28.4 °F 75% 30.18 in - SW 4.5 mph - N/A   Clear
2:30 AM 37.4 °F - 28.4 °F 70% 30.18 in - SW 2.2 mph - N/A   Clear
3:00 AM 37.4 °F 33.9 °F 28.4 °F 70% 30.18 in - SSW 4.5 mph - N/A   Clear
3:30 AM 37.4 °F 33.9 °F 28.4 °F 70% 30.18 in - SW 4.5 mph - N/A   Clear
4:00 AM 35.6 °F 28.7 °F 28.4 °F 75% 30.18 in - SSW 8.9 mph - N/A   Clear
4:30 AM 37.4 °F 30.9 °F 28.4 °F 70% 30.18 in - SSW 8.9 mph - N/A   Clear
5:00 AM 37.4 °F 30.9 °F 28.4 °F 70% 30.15 in - SSW 8.9 mph - N/A   Clear
5:30 AM 37.4 °F 30.9 °F 28.4 °F 70% 30.15 in - SSW 8.9 mph - N/A   Clear
6:00 AM 37.4 °F 29.9 °F 28.4 °F 70% 30.15 in - SSW 11.2 mph - N/A   Clear
6:30 AM 37.4 °F 29.9 °F 28.4 °F 70% 30.15 in - SSW 11.2 mph - N/A   Clear
7:00 AM 35.6 °F 27.7 °F 28.4 °F 75% 30.15 in - SW 11.2 mph - N/A   Clear
7:30 AM 37.4 °F 29.1 °F 28.4 °F 70% 30.15 in - SSW 13.4 mph - N/A   Clear
8:00 AM 39.2 °F 32.2 °F 28.4 °F 65% 30.15 in - SSW 11.2 mph - N/A   Clear
8:30 AM 41.0 °F 33.6 °F 28.4 °F 61% 30.15 in - SSW 13.4 mph - N/A   Clear
9:00 AM 41.0 °F 33.6 °F 28.4 °F 61% 30.15 in - SSW 13.4 mph - N/A   Clear
9:30 AM 42.8 °F 36.7 °F 28.4 °F 57% 30.15 in - SSW 11.2 mph - N/A   Clear
10:00 AM 42.8 °F 37.6 °F 30.2 °F 61% 30.12 in - SW 8.9 mph - N/A   Clear
10:30 AM 44.6 °F 39.8 °F 30.2 °F 57% 30.12 in - SW 8.9 mph - N/A   Clear
11:00 AM 46.4 °F 41.2 °F 30.2 °F 53% 30.12 in - SSW 11.2 mph - N/A   Clear
11:30 AM 48.2 °F - 30.2 °F 50% 30.12 in - SSW 8.9 mph - N/A   Clear
12:00 PM 51.8 °F - 30.2 °F 44% 30.12 in - WSW 13.4 mph 22.4 mph N/A   Clear
12:30 PM 51.8 °F - 30.2 °F 44% 30.12 in - WSW 13.4 mph 20.1 mph N/A   Clear
1:00 PM 53.6 °F - 32.0 °F 44% 30.12 in - SSW 8.9 mph - N/A   Clear
1:30 PM 55.4 °F - 30.2 °F 38% 30.12 in - SSW 8.9 mph - N/A   Clear
2:00 PM 53.6 °F - 32.0 °F 44% 30.09 in - SW 13.4 mph - N/A   Clear
2:30 PM 53.6 °F - 32.0 °F 44% 30.09 in - WSW 13.4 mph - N/A   Clear
3:00 PM 53.6 °F - 32.0 °F 44% 30.06 in - SW 11.2 mph - N/A   Clear
3:30 PM 53.6 °F - 32.0 °F 44% 30.06 in - WSW 15.7 mph 22.4 mph N/A   Clear
4:00 PM 53.6 °F - 33.8 °F 47% 30.06 in - WSW 15.7 mph 22.4 mph N/A   Clear
4:30 PM 53.6 °F - 33.8 °F 47% 30.06 in - WSW 13.4 mph - N/A   Clear
5:00 PM 55.4 °F - 32.0 °F 41% 30.06 in - WSW 13.4 mph 20.1 mph N/A   Clear
5:30 PM 53.6 °F - 32.0 °F 44% 30.04 in - WSW 13.4 mph 20.1 mph N/A   Clear
6:00 PM 53.6 °F - 32.0 °F 44% 30.04 in - WSW 13.4 mph - N/A   Clear
6:30 PM 53.6 °F - 32.0 °F 44% 30.04 in - West 8.9 mph - N/A   Clear
7:00 PM 48.2 °F - 32.0 °F 54% 30.06 in 6.2 mi NNW 15.7 mph 24.6 mph N/A   Overcast
7:30 PM 41.0 °F 34.4 °F 32.0 °F 70% 30.09 in 6.2 mi North 11.2 mph 20.1 mph N/A   Overcast
8:00 PM 39.2 °F 31.3 °F 30.2 °F 70% 30.12 in 6.2 mi North 13.4 mph - N/A   Overcast
8:30 PM 37.4 °F 27.6 °F 30.2 °F 75% 30.15 in 6.2 mi North 17.9 mph 24.6 mph N/A   Overcast
9:00 PM 37.4 °F 29.1 °F 30.2 °F 75% 30.18 in 6.2 mi North 13.4 mph 20.1 mph N/A   Overcast
9:30 PM 35.6 °F 26.0 °F 30.2 °F 81% 30.21 in 6.2 mi North 15.7 mph 24.6 mph N/A   Overcast
10:00 PM 35.6 °F 25.3 °F 30.2 °F 81% 30.21 in 6.2 mi North 17.9 mph 26.8 mph N/A   Overcast
10:30 PM 33.8 °F 23.0 °F 28.4 °F 81% 30.21 in 1.9 mi North 17.9 mph 24.6 mph N/A Rain , Snow Light Snow
11:00 PM 32.0 °F 21.4 °F 28.4 °F 87% 30.24 in 0.9 mi North 15.7 mph 24.6 mph N/A Rain , Snow Snow Showers
11:30 PM 32.0 °F 20.6 °F 28.4 °F 87% 30.24 in 1.8 mi North 17.9 mph 24.6 mph N/A Rain , Snow Light Snow Showers